Regional Weather Roundup
Issued by NWS

Home | Current Version | Previous Version | Text Only | Print | Product List | Glossary On
Versions: 1 2 3 4 5 6 7 8 9 10 11 12 13 14 15 16 17 18 19 20 21 22 23 24 25 26 27 28 29 30 31 32 33 34 35 36 37 38 39 40 41 42 43 44 45 46 47 48 49 50
000
ASPQ40 PGUM 261112
RWRPQ
WEATHER ROUNDUP FOR THE MARIANAS AND MICRONESIA
NATIONAL WEATHER SERVICE TIYAN GU
900 PM CHST SAT JUL 26 2014

GUZ001>004-261200-
MARIANA ISLANDS-

CITY           SKY/WX    TMP DP  RH WIND       PRES   REMARKS
GUAM AIRPORT   PTCLDY    81  75  83 W6        29.84F
ANDERSEN AFB   PTCLDY    77  75  94 W2        29.85F
ROTA AIRPORT   NOT AVBL
TINIAN AP      NOT AVBL
SAIPAN AP      MOCLDY   N/A N/A N/A CALM      29.87R

$$

PMZ161-261200-
REPUBLIC OF PALAU-

CITY           SKY/WX    TMP DP  RH WIND       PRES   REMARKS
KOROR AP       CLOUDY    81  81 100 SW15G25   29.80R HX  91
KOROR WSO      CLOUDY    81  73  78 W17       29.80S

$$

PMZ171>174-261200-
FEDERATED STATES OF MICRONESIA-

CITY           SKY/WX    TMP DP  RH WIND       PRES   REMARKS
YAP AIRPORT    CLOUDY    81  77  89 S8G17     29.80R
CHUUK AP       CLOUDY    82  79  89 NW9       29.88R HX  93
POHNPEI AP     NOT AVBL
POHNPEI WSO    CLOUDY    82  75  78 NW9       29.90R
KOSRAE AP      NOT AVBL

$$

PMZ181-261200-
REPUBLIC OF THE MARSHALL ISLANDS-

CITY           SKY/WX    TMP DP  RH WIND       PRES   REMARKS
KWAJALEIN AP   PTCLDY    82  75  78 E9        29.90S
MAJURO AP      NOT AVBL
MAJURO WSO     MOCLDY    81  77  89 W10       29.90S

$$




USA.gov is the U.S. government's official web portal to all federal, state and local government web resources and services.